Regional Weather Roundup
Issued by NWS Bismarck, ND

Home | Current Version | Previous Version | Text Only | Print | Product List | Glossary On
Versions: 1 2 3 4 5 6 7 8 9 10 11 12 13 14 15 16 17 18 19 20 21 22 23 24 25 26 27 28 29 30 31 32 33 34 35 36 37 38 39 40 41 42 43 44 45 46 47 48 49 50
000
ASUS43 KBIS 020901
RWRBIS

NWR BROADCAST TEXT
NATIONAL WEATHER SERVICE BISMARCK ND
300 AM CST MON MAR 02 2015

NOTE: "FAIR" INDICATES FEW OR NO CLOUDS BELOW 12,000 FEET WITH NO
SIGNIFICANT WEATHER AND/OR OBSTRUCTIONS TO VISIBILITY.


CITY           SKY/WX    TMP DP  RH WIND       PRES   REMARKS
WILLISTON      PTCLDY     7   2  80 S6        30.17F WCI  -3
MINOT          PTCLDY     9   1  70 S5        30.24F WCI   1
MINOT AFB      NOT AVBL
BISMARCK       CLEAR      3  -1  83 SE3       30.32F
DICKINSON      CLEAR      7   1  76 S10       30.15F WCI  -8
GARRISON         N/A      1  -2  87 SE3       30.25F
HETTINGER ARPT CLEAR     10   6  84 SE9       30.19F WCI  -3
JAMESTOWN      PTCLDY     4   0  83 SW7       30.33S WCI  -8
CARRINGTON     FAIR       7   7 100 MISG      30.32F
HAZEN          FAIR       0  -4  85 CALM      30.28F
WATFORD CITY   FAIR      10   9  92 S13       30.15F WCI  -5
$$

CITY           SKY/WX    TMP DP  RH WIND       PRES   REMARKS
GRAND FORKS    PTCLDY     1  -4  79 CALM      30.35F
GRAND FORKS AF PTCLDY     4  -1  80 W5        30.35S WCI  -6
DEVILS LAKE    PTCLDY     3  -2  78 SW6       30.30S WCI  -8
FARGO          PTCLDY     2  -3  80 SW7       30.40R WCI -11
$$

CITY           SKY/WX    TMP DP  RH WIND       PRES   REMARKS
ABERDEEN       MOCLDY    -1  -5  82 S3        30.42S
MOBRIDGE       PTCLDY     8   4  83 SE8       30.31F WCI  -4
BUFFALO          N/A      9   3  77 SE10      30.06F WCI  -5
RAPID CITY     PTCLDY    13   6  74 SE5       30.18F WCI   5
GLASGOW        CLEAR     17   9  70 SE16      30.00F WCI   2
SIDNEY         CLEAR     10   5  79 SE3       30.17F
WOLF POINT     CLEAR     14   7  73 NE8       30.09F WCI   3
GLENDIVE       CLEAR      9   1  72 S7        30.10F WCI  -3
MILES CITY     CLEAR     15   7  70 SE14      30.04F WCI   0
BAKER          CLEAR     11   5  77 S16       30.10F WCI  -6
$$

CITY           SKY/WX    TMP DP  RH WIND       PRES   REMARKS
BILLINGS       PTCLDY    18   6  59 SW7       29.94F WCI   9
GREAT FALLS    CLOUDY    30   9  41 SW21      29.82F WCI  17
$$




USA.gov is the U.S. government's official web portal to all federal, state and local government web resources and services.